1499767201.0,46877,18.75,74000.0,12.35,6.57,6.35,0,*46
1499767202.21,46878,18.81,74004.3,12.35,6.75,6.51,0,*4B
1499767203.41,46879,18.75,74000.3,12.37,6.97,6.79,0,*4E
1499767204.62,46880,18.75,74002.0,12.39,6.93,6.69,0,*43
1499767205.88,46881,18.75,74000.3,12.37,6.65,6.43,0,*4D
1499767207.09,46882,18.81,74006.0,12.39,7.09,6.87,0,*43
1499767208.32,46883,18.75,74008.5,12.39,7.47,7.11,0,*46
1499767209.51,46884,18.75,74006.5,12.39,7.55,7.29,0,*49
1499767210.72,46885,18.75,74004.5,12.43,7.77,7.51,0,*4A
1499767211.92,46886,18.75,74004.5,12.43,7.65,7.41,0,*4B
1499767213.11,46887,18.75,74002.8,12.43,7.55,7.29,0,*47
1499767214.34,46888,18.81,74010.0,12.45,7.09,6.73,0,*49
1499767215.6,46889,18.75,74004.8,12.45,6.87,6.47,0,*48
1499767216.87,46890,18.75,74000.8,12.45,6.87,6.51,0,*47
1499767218.13,46891,18.81,74002.8,12.45,6.51,6.17,0,*4F
1499767219.37,46892,18.75,74006.0,12.45,5.81,5.33,0,*47
1499767220.58,46893,18.75,74010.3,12.43,5.89,5.49,0,*45
1499767221.77,46894,18.81,74014.0,12.43,5.71,5.23,0,*49
1499767223.0,46895,18.75,74008.3,12.41,5.73,5.29,0,*42
1499767224.23,46896,18.75,73998.3,12.41,4.05,3.55,0,*4C
1499767225.46,46897,18.75,73990.3,12.37,4.59,4.19,0,*4A
1499767226.67,46898,18.75,73990.5,12.35,4.67,4.27,0,*47
1499767227.88,46899,18.81,73996.8,12.33,4.33,3.93,0,*49
1499767229.09,46900,18.81,73998.8,12.31,3.93,3.45,0,*4C
1499767230.28,46901,18.75,73996.8,12.27,4.23,3.85,0,*4A
1499767231.51,46902,18.81,74006.3,12.23,4.75,4.31,0,*46
1499767232.72,46903,18.75,74004.5,12.23,4.75,4.37,0,*41
1499767233.95,46904,18.75,74008.0,12.21,5.41,5.05,0,*42
1499767235.21,46905,18.75,74008.0,12.21,5.89,5.51,0,*46
1499767236.44,46906,18.81,74004.3,12.21,4.97,4.49,0,*43
1499767237.65,46907,18.81,73996.5,12.19,4.59,4.15,0,*42
1499767238.88,46908,18.75,74006.8,12.17,4.23,3.79,0,*43
1499767240.08,46909,18.75,74002.0,12.15,3.63,3.23,0,*4C
1499767241.31,46910,18.75,74002.0,12.13,5.29,4.71,0,*4A
1499767242.51,46911,18.75,74004.0,12.13,5.67,5.29,0,*4D
1499767243.72,46912,18.75,74006.0,12.11,5.55,5.11,0,*46
1499767244.98,46913,18.81,74008.5,12.13,5.81,5.55,0,*4C
1499767246.19,46914,18.81,74008.8,12.11,5.93,5.63,0,*4F
1499767247.41,46915,18.75,74008.3,12.13,5.77,5.45,0,*42
1499767248.65,46916,18.81,74014.5,12.13,6.25,5.89,0,*45
1499767249.9,46917,18.81,74016.5,12.13,6.35,6.03,0,*44
1499767251.11,46918,18.75,74020.3,12.11,5.93,5.41,0,*43
1499767252.34,46919,18.81,74020.5,12.13,5.81,5.41,0,*43
1499767253.55,46920,18.75,74018.3,12.13,5.67,5.23,0,*45
1499767254.78,46921,18.75,74012.0,12.13,5.55,5.11,0,*44
1499767256.02,46922,18.75,74006.0,12.11,5.51,4.97,0,*4E
1499767257.23,46923,18.75,74004.5,12.11,4.97,4.53,0,*4C
1499767258.43,46924,18.81,74012.3,12.11,5.07,4.59,0,*49
1499767259.62,46925,18.75,74010.5,12.11,5.59,5.19,0,*46
1499767260.85,46926,18.81,74012.5,12.09,4.93,4.45,0,*43
1499767262.06,46927,18.81,74010.0,12.07,4.71,4.23,0,*40
1499767263.26,46928,18.75,74004.8,12.07,4.79,4.27,0,*43
1499767264.49,46929,18.75,74002.3,12.05,4.93,4.45,0,*40
1499767265.72,46930,18.81,74004.5,12.05,5.15,4.79,0,*48
1499767266.92,46931,18.75,74006.3,12.01,5.29,4.81,0,*45
1499767268.16,46932,18.81,74008.0,12.01,5.41,4.97,0,*4F
1499767269.4,46933,18.75,74006.5,12.01,5.19,4.75,0,*4F
1499767270.61,46934,18.81,74004.8,12.01,5.23,4.89,0,*42
1499767271.8,46935,18.81,74010.5,11.99,5.67,5.29,0,*4A
1499767273.03,46936,18.81,74006.5,11.99,5.89,5.51,0,*46
1499767274.27,46937,18.75,74000.8,11.99,6.35,5.93,0,*4D
1499767275.46,46938,18.81,74004.8,11.99,6.11,5.71,0,*48
1499767276.67,46939,18.81,74006.0,12.01,5.71,5.41,0,*4D
1499767277.89,46940,18.81,74006.5,12.01,5.67,5.19,0,*49
1499767279.1,46941,18.81,74010.0,11.99,6.11,5.81,0,*49
1499767280.32,46942,18.81,74006.3,11.99,6.47,6.03,0,*40
1499767281.53,46943,18.75,74004.5,11.99,6.21,5.77,0,*41
1499767282.72,46944,18.75,74006.3,11.99,6.03,5.59,0,*4A
1499767283.96,46945,18.81,74008.5,12.05,5.93,5.59,0,*47
1499767285.2,46946,18.75,74010.3,12.01,6.13,5.71,0,*41
1499767286.43,46947,18.81,74010.5,12.01,5.77,5.41,0,*42
1499767287.66,46948,18.81,74008.8,12.01,5.51,5.11,0,*4C
1499767288.86,46949,18.81,74012.0,11.99,5.99,5.67,0,*4A
1499767290.08,46950,18.81,74008.5,11.99,6.35,5.99,0,*46
1499767291.27,46951,18.81,74010.0,11.99,6.25,5.99,0,*46
1499767292.5,46952,18.81,74006.8,11.99,6.13,5.77,0,*40
1499767293.75,46953,18.75,74008.0,12.01,6.21,5.81,0,*4B
1499767294.99,46954,18.75,74006.3,12.01,6.35,5.99,0,*40
1499767296.22,46955,18.75,74006.8,12.01,6.03,5.67,0,*45
1499767297.44,46956,18.81,74010.5,12.01,6.33,5.99,0,*44
1499767298.68,46957,18.75,74010.8,12.01,5.93,5.67,0,*4D
1499767299.94,46958,18.81,74012.8,12.05,6.51,6.13,0,*4B
1499767301.18,46959,18.81,74010.5,12.01,6.21,5.93,0,*42
1499767302.45,46960,18.75,74008.8,12.01,5.89,5.55,0,*43
1499767303.68,46961,18.81,74012.3,12.01,6.13,6.07,0,*46
1499767304.9,46962,18.75,74010.8,12.01,6.03,5.71,0,*46
1499767306.16,46963,18.81,74012.3,12.05,6.73,6.43,0,*46
1499767307.37,46964,18.81,74012.5,12.07,6.65,6.21,0,*40
1499767308.61,46965,18.81,74014.0,12.01,6.21,5.89,0,*46
1499767309.85,46966,18.75,74010.3,12.01,6.03,5.77,0,*44
1499767311.11,46967,18.75,74008.0,12.05,6.43,6.17,0,*40
1499767312.35,46968,18.81,74010.8,12.05,6.51,6.07,0,*4D
1499767313.61,46969,18.81,74008.5,12.01,5.89,5.55,0,*4A
1499767314.82,46970,18.81,74010.0,12.05,6.07,5.71,0,*45
1499767316.08,46971,18.81,74014.3,12.05,6.43,6.13,0,*43
1499767317.33,46972,18.81,74014.5,12.05,6.17,5.81,0,*49
1499767318.56,46973,18.81,74008.3,12.01,5.55,5.29,0,*4B
1499767319.78,46974,18.81,74006.0,12.05,5.27,4.85,0,*4A
1499767321.02,46975,18.81,74000.0,12.01,5.45,5.01,0,*46
1499767322.26,46976,18.81,74000.5,12.01,6.39,6.11,0,*4F
1499767323.47,46977,18.75,73996.8,11.99,6.51,6.25,0,*45
1499767324.7,46978,18.75,74002.0,12.01,5.77,5.45,0,*4A
1499767325.93,46979,18.81,74004.3,12.01,5.81,5.45,0,*42
1499767327.14,46980,18.81,74006.0,11.99,6.11,5.77,0,*4D
1499767328.38,46981,18.81,74000.0,12.01,6.57,6.33,0,*4F
1499767329.63,46982,18.81,74000.3,12.01,6.69,6.39,0,*4B
1499767330.86,46983,18.81,74004.3,12.01,6.83,6.61,0,*43
1499767332.1,46984,18.81,73996.5,12.05,6.51,6.29,0,*43
1499767333.32,46985,18.75,73996.3,12.01,6.25,6.03,0,*4D
1499767334.54,46986,18.81,73996.5,12.01,6.33,6.11,0,*4A
1499767335.77,46987,18.75,74000.5,12.05,6.51,6.25,0,*4C
1499767337.04,46988,18.81,74000.8,12.01,6.47,6.17,0,*41
1499767338.26,46989,18.75,73998.5,12.01,6.33,6.03,0,*46
1499767339.49,46990,18.81,74000.8,12.05,6.07,5.73,0,*49
1499767340.72,46991,18.81,73992.0,12.01,5.55,5.33,0,*4C
1499767341.93,46992,18.81,73992.8,12.01,5.45,5.11,0,*4E
1499767343.17,46993,18.81,73990.5,12.01,5.41,5.01,0,*4A
1499767344.38,46994,18.81,73990.3,12.01,5.23,4.89,0,*48
1499767345.58,46995,18.81,73996.5,11.99,5.55,5.29,0,*41
1499767346.78,46996,18.81,73998.0,11.97,5.49,5.15,0,*4E
1499767348.01,46997,18.81,73998.0,11.97,5.55,5.15,0,*42
1499767349.23,46998,18.81,74002.0,11.97,5.55,5.29,0,*42
1499767350.49,46999,18.81,74000.3,11.95,5.51,5.27,0,*4B
1499767351.7,47000,18.81,74002.0,11.93,5.93,5.59,0,*42
1499767352.94,47001,18.81,74004.3,11.97,5.89,5.67,0,*41
1499767354.11,47002,18.81,74006.8,11.93,5.71,5.45,0,*41
1499767355.29,47003,18.81,74000.8,11.93,5.45,5.11,0,*46
1499767356.49,47004,18.81,74000.5,11.93,5.59,5.27,0,*49
1499767357.7,47005,18.81,74002.3,11.91,5.67,5.41,0,*47
1499767358.9,47006,18.81,74000.5,11.91,5.59,5.33,0,*4C
1499767360.1,47007,18.81,74002.3,11.89,5.51,5.19,0,*44
1499767361.31,47008,18.81,73998.5,11.91,5.59,5.33,0,*42
1499767362.48,47009,18.81,74000.0,11.89,5.67,5.29,0,*4C
1499767363.74,47010,18.81,73998.0,11.87,5.77,5.55,0,*40
1499767364.95,47011,18.81,73990.5,11.87,5.41,5.19,0,*4C
1499767366.21,47012,18.81,73992.0,11.87,5.85,5.55,0,*4F
1499767367.47,47013,18.81,73998.0,11.87,5.89,5.55,0,*42
1499767368.68,47014,18.75,73994.5,11.87,5.95,5.63,0,*4D
1499767369.89,47015,18.81,73996.5,11.87,5.67,5.29,0,*4F
1499767371.13,47016,18.81,73992.5,11.85,5.81,5.51,0,*49
1499767372.36,47017,18.75,73992.0,11.87,6.11,5.89,0,*45
1499767373.57,47018,18.81,73994.8,11.85,6.51,6.29,0,*45
1499767374.83,47019,18.81,73998.8,11.87,6.17,5.89,0,*4D
1499767376.06,47020,18.81,74000.8,11.87,6.43,6.29,0,*4F
1499767377.3,47021,18.81,74002.8,11.87,7.01,6.91,0,*4A
1499767378.49,47022,18.81,73996.3,11.89,6.93,6.69,0,*4A
1499767379.69,47023,18.81,74000.0,11.89,7.37,7.23,0,*4B
1499767380.91,47024,18.81,74000.5,11.91,7.41,7.19,0,*4D
1499767382.11,47025,18.81,74004.8,11.93,7.33,7.19,0,*4B
1499767383.32,47026,18.81,74004.3,11.93,7.23,6.97,0,*4E
1499767384.52,47027,18.81,74006.3,11.93,6.93,6.73,0,*4F
1499767385.78,47028,18.81,74006.8,11.95,6.73,6.53,0,*4A
1499767386.98,47029,18.81,74004.3,11.97,6.97,6.79,0,*4B
1499767388.24,47030,18.81,74000.3,11.95,6.61,6.43,0,*41
1499767389.46,47031,18.81,73996.3,11.95,6.33,5.95,0,*4F
1499767390.72,47032,18.81,73994.3,11.95,6.13,5.81,0,*4B
1499767391.94,47033,18.81,73994.8,11.95,6.03,5.71,0,*44
1499767393.16,47034,18.81,73996.0,11.95,5.27,4.89,0,*40
1499767394.34,47035,18.81,73998.5,11.93,5.49,5.15,0,*4B
1499767395.57,47036,18.81,74000.5,11.91,5.89,5.45,0,*43
1499767396.75,47037,18.81,74006.3,11.89,5.45,5.07,0,*4D
1499767397.95,47038,18.81,74010.3,11.89,5.95,5.55,0,*48
1499767399.13,47039,18.81,74012.5,11.89,5.45,5.15,0,*40
1499767400.3,47040,18.81,74004.0,11.89,5.19,4.81,0,*4B
1499767401.48,47041,18.81,73998.8,11.85,5.33,4.89,0,*46
1499767402.72,47042,18.81,74000.3,11.85,5.05,4.67,0,*40
1499767403.93,47043,18.81,74000.3,11.85,5.37,5.01,0,*41
1499767405.14,47044,18.81,73996.3,11.79,5.49,5.19,0,*45
1499767406.39,47045,18.81,73996.3,11.79,5.89,5.59,0,*4C
1499767407.62,47046,18.81,74002.3,11.79,6.03,5.67,0,*43
1499767408.83,47047,18.81,74006.0,11.81,6.29,5.93,0,*46
1499767410.06,47048,18.81,74004.0,11.81,6.57,6.17,0,*4F
1499767411.27,47049,18.81,74000.3,11.81,6.79,6.51,0,*40
1499767412.5,47050,18.81,74000.0,11.81,6.69,6.47,0,*4E
1499767413.73,47051,18.81,74002.8,11.81,7.15,6.87,0,*49
1499767414.91,47052,18.81,74002.5,11.85,7.29,7.01,0,*4E
1499767416.12,47053,18.81,74002.5,11.85,7.23,7.09,0,*4D
1499767417.32,47054,18.81,74004.5,11.85,7.19,6.97,0,*45
1499767418.55,47055,18.81,74000.5,11.87,7.33,7.11,0,*41
1499767419.73,47056,18.81,74000.3,11.89,7.59,7.33,0,*40
1499767420.95,47057,18.81,74002.3,11.91,7.37,7.15,0,*44
1499767422.16,47058,18.81,74006.3,11.91,7.51,7.29,0,*44
1499767423.38,47059,18.81,74004.0,11.91,7.41,7.27,0,*4A
1499767424.56,47060,18.81,74004.0,11.93,7.33,7.09,0,*4B
1499767425.76,47061,18.81,74002.0,11.93,7.51,7.23,0,*46
1499767426.99,47062,18.81,74006.3,11.95,7.45,7.11,0,*47
1499767428.21,47063,18.75,74004.3,11.97,6.97,6.69,0,*44
1499767429.47,47064,18.81,74010.3,11.97,6.53,6.17,0,*42
1499767430.72,47065,18.81,74010.5,11.97,6.17,5.77,0,*46
1499767431.95,47066,18.81,74014.0,11.95,5.59,5.27,0,*4B
1499767433.14,47067,18.81,74010.5,11.93,6.03,5.59,0,*49
1499767434.38,47068,18.81,74006.0,11.95,5.51,5.15,0,*4C
1499767435.61,47069,18.81,74002.5,11.93,6.17,5.81,0,*47
1499767436.78,47070,18.81,74004.0,11.93,6.07,5.63,0,*42
1499767438.04,47071,18.81,74010.5,11.91,6.73,6.47,0,*47
1499767439.27,47072,18.81,74014.5,11.91,6.57,6.21,0,*42
1499767440.5,47073,18.81,74006.0,11.91,6.13,5.71,0,*45
1499767441.74,47074,18.81,74008.5,11.91,6.47,6.11,0,*46
1499767442.96,47075,18.81,74004.5,11.91,6.69,6.29,0,*40
1499767444.19,47076,18.81,74010.8,11.91,6.39,6.03,0,*4E
1499767445.43,47077,18.81,74004.3,11.91,6.51,6.03,0,*41
1499767446.67,47078,18.81,74002.8,11.91,6.51,6.25,0,*4A
1499767447.88,47079,18.81,74004.8,11.91,6.79,6.57,0,*44
1499767449.12,47080,18.81,74004.5,11.91,6.51,6.03,0,*49
1499767450.35,47081,18.81,74002.5,11.91,5.29,4.75,0,*47
1499767451.56,47082,18.81,74000.0,11.89,5.15,4.71,0,*46
1499767452.74,47083,18.81,73998.0,11.89,5.41,5.07,0,*46
1499767453.99,47084,18.81,74004.3,11.87,6.17,5.77,0,*48
1499767455.23,47085,18.81,74004.3,11.85,6.73,6.43,0,*4D
1499767456.5,47086,18.81,74006.5,11.87,7.23,6.91,0,*47
1499767457.73,47087,18.81,74010.0,11.87,7.55,7.23,0,*4F
1499767458.93,47088,18.81,74008.3,11.89,6.69,6.33,0,*40
1499767460.16,47089,18.81,74006.5,11.89,6.91,6.65,0,*45
1499767461.38,47090,18.81,74006.0,11.91,7.27,6.93,0,*41
1499767462.64,47091,18.81,74002.5,11.91,7.27,6.91,0,*42
1499767463.86,47092,18.81,74002.5,11.91,6.83,6.61,0,*41
1499767465.1,47093,18.81,74002.0,11.91,6.25,5.81,0,*41
1499767466.29,47094,18.81,73998.3,11.93,6.33,6.03,0,*4A
1499767467.55,47095,18.81,73998.0,11.91,6.73,6.51,0,*4A
1499767468.79,47096,18.81,73998.5,11.91,6.57,6.13,0,*49
1499767469.99,47097,18.81,73992.0,11.89,5.77,5.33,0,*41
1499767471.2,47098,18.81,73994.3,11.91,5.49,5.07,0,*4D
1499767472.37,47099,18.81,73998.0,11.89,5.45,5.07,0,*49
1499767473.56,47100,18.81,73998.5,11.89,5.41,5.07,0,*4C
1499767474.75,47101,18.81,73998.8,11.85,5.63,5.23,0,*47
1499767475.94,47102,18.81,74000.0,11.85,6.03,5.71,0,*46
1499767477.15,47103,18.81,74006.3,11.85,5.73,5.37,0,*41
1499767478.35,47104,18.81,74006.5,11.85,6.53,6.29,0,*4B
1499767479.58,47105,18.81,74006.0,11.81,6.69,6.51,0,*48
1499767480.82,47106,18.81,74008.0,11.85,6.65,6.43,0,*40
1499767482.04,47107,18.81,74006.8,11.87,6.75,6.53,0,*43
1499767483.22,47108,18.81,74012.0,11.85,7.29,7.01,0,*40
1499767484.45,47109,18.81,74012.8,11.87,7.37,7.23,0,*4C
1499767485.68,47110,18.75,74010.5,11.87,6.79,6.53,0,*49
1499767486.92,47111,18.81,74008.3,11.87,6.43,6.11,0,*47
1499767488.17,47112,18.81,74008.3,11.87,6.17,5.89,0,*47
1499767489.36,47113,18.81,74010.0,11.89,6.25,5.95,0,*44
1499767490.57,47114,18.81,74008.3,11.89,6.43,6.07,0,*4B
1499767491.78,47115,18.81,74006.3,11.87,6.21,5.95,0,*48
1499767493.02,47116,18.81,74004.3,11.87,5.73,5.37,0,*47
1499767494.22,47117,18.81,74010.0,11.85,5.81,5.49,0,*40
1499767495.43,47118,18.81,73998.3,11.81,5.33,4.97,0,*40
1499767496.61,47119,18.81,73996.5,11.81,5.45,5.19,0,*47
1499767497.79,47120,18.81,74000.5,11.81,5.71,5.37,0,*46
1499767499.03,47121,18.81,73998.5,11.79,5.89,5.59,0,*4F
1499767500.26,47122,18.81,74002.0,11.79,6.29,6.03,0,*49
1499767501.5,47123,18.81,73998.0,11.79,6.11,5.81,0,*4A
1499767502.72,47124,18.81,73994.3,11.79,6.29,5.99,0,*4F
1499767503.96,47125,18.81,73984.0,11.79,7.09,6.87,0,*41
1499767505.19,47126,18.81,73984.8,11.79,7.27,7.05,0,*45
1499767506.42,47127,18.81,73984.8,11.79,7.19,7.05,0,*49
1499767507.63,47128,18.81,73990.5,11.81,6.79,6.51,0,*46
1499767508.82,47129,18.81,73986.3,11.81,6.79,6.57,0,*41
1499767510.06,47130,18.81,73986.8,11.81,6.73,6.47,0,*42
1499767511.29,47131,18.81,73992.8,11.81,6.87,6.61,0,*4C
1499767512.5,47132,18.81,73992.5,11.81,6.39,6.11,0,*4D
1499767513.71,47133,18.81,73998.5,11.81,6.51,6.25,0,*45
1499767514.93,47134,18.81,73996.3,11.79,6.97,6.79,0,*46
1499767516.15,47135,18.81,74004.0,11.81,7.65,7.47,0,*40
1499767517.35,47136,18.81,74000.5,11.85,7.45,7.23,0,*47
1499767518.56,47137,18.81,74004.0,11.85,7.23,7.09,0,*4E
1499767519.79,47138,18.81,74004.8,11.87,7.27,7.01,0,*4F
1499767521.02,47139,18.81,73996.8,11.87,7.33,7.15,0,*4E
1499767522.22,47140,18.81,73994.0,11.89,7.69,7.45,0,*44
1499767523.43,47141,18.81,74006.8,11.89,6.79,6.47,0,*46
1499767524.64,47142,18.81,74004.0,11.91,6.25,5.99,0,*45
1499767525.83,47143,18.81,74002.3,11.89,6.25,5.99,0,*4D
1499767527.01,47144,18.81,73994.8,11.89,5.95,5.63,0,*47
1499767528.19,47145,18.81,74002.5,11.89,5.67,5.41,0,*4B
1499767529.37,47146,18.81,73998.5,11.85,5.71,5.41,0,*43
1499767530.55,47147,18.81,73996.8,11.85,6.33,6.07,0,*46
1499767531.74,47148,18.81,73992.5,11.85,5.95,5.71,0,*44
1499767532.95,47149,18.81,73972.5,11.81,5.55,5.07,0,*4C
1499767534.19,47150,18.81,73994.0,11.79,5.19,4.79,0,*43
1499767535.44,47151,18.81,73994.8,11.79,6.35,5.99,0,*40
1499767536.7,47152,18.81,74002.5,11.79,6.39,6.17,0,*4A
1499767537.96,47153,18.81,74004.8,11.75,6.57,6.43,0,*4E
1499767539.2,47154,18.81,74002.8,11.75,7.05,6.91,0,*40
1499767540.42,47155,18.81,73998.8,11.75,6.83,6.57,0,*44
1499767541.69,47156,18.81,74004.0,11.79,6.61,6.47,0,*46
1499767542.95,47157,18.81,74004.0,11.79,7.19,7.15,0,*4F
1499767544.16,47158,18.81,74004.5,11.81,7.29,7.19,0,*48
1499767545.34,47159,18.81,74004.0,11.81,7.37,7.37,0,*4A
1499767546.54,47160,18.81,74002.3,11.81,7.19,7.05,0,*4D
1499767547.75,47161,18.81,74002.5,11.85,7.29,7.19,0,*46
1499767549.01,47162,18.81,74004.5,11.87,6.91,6.87,0,*43
1499767550.21,47163,18.81,74006.0,11.87,7.37,7.33,0,*41
1499767551.42,47164,18.81,74004.0,11.87,7.05,6.93,0,*4C
1499767552.62,47165,18.81,74004.0,11.89,7.23,7.05,0,*49
1499767553.82,47166,18.81,74008.5,11.89,7.47,7.37,0,*49
1499767555.04,47167,18.81,74008.5,11.89,7.69,7.47,0,*43
1499767556.27,47168,18.81,74008.8,11.89,7.69,7.47,0,*4C
1499767557.47,47169,18.81,74008.3,11.93,7.97,7.77,0,*44
1499767558.7,47170,18.81,74004.8,11.93,8.29,8.13,0,*4B
1499767559.91,47171,18.81,74000.5,11.95,8.09,7.79,0,*4D
1499767561.17,47172,18.81,74000.8,11.97,8.13,7.91,0,*41
1499767562.38,47173,18.81,74002.3,11.99,8.41,8.19,0,*46
1499767563.59,47174,18.81,74002.3,11.99,8.47,8.19,0,*47
1499767564.8,47175,18.81,74004.3,11.99,8.47,8.15,0,*4A
1499767566.05,47176,18.81,74006.3,12.05,8.13,7.83,0,*4E
1499767567.31,47177,18.81,74002.3,12.05,8.13,7.87,0,*4B
1499767568.52,47178,18.81,74004.8,12.07,8.37,8.05,0,*45
1499767569.75,47179,18.81,74004.8,12.09,8.47,8.15,0,*4C
1499767570.96,47180,18.81,74002.3,12.11,8.27,7.91,0,*46
1499767572.16,47181,18.81,74004.5,12.13,7.97,7.59,0,*45
1499767573.37,47182,18.81,74008.0,12.11,8.09,7.73,0,*44
1499767574.61,47183,18.81,74004.8,12.13,8.37,8.05,0,*44
1499767575.84,47184,18.81,74008.0,12.17,8.47,8.09,0,*4C
1499767577.04,47185,18.81,74010.3,12.17,8.01,7.59,0,*45
1499767578.27,47186,18.81,74014.3,12.17,8.01,7.65,0,*49
1499767579.48,47187,18.81,74010.0,12.19,8.05,7.73,0,*45
1499767580.71,47188,18.81,74004.3,12.21,8.27,7.91,0,*4D
1499767581.97,47189,18.81,74002.3,12.21,8.29,7.95,0,*46
1499767583.2,47190,18.81,74006.0,12.21,8.41,8.09,0,*4A
1499767584.44,47191,18.81,74000.8,12.21,8.51,8.27,0,*46
1499767585.63,47192,18.81,74000.0,12.23,8.61,8.29,0,*4A
1499767586.87,47193,18.81,74002.0,12.29,8.09,7.77,0,*4B
1499767588.13,47194,18.81,74002.3,12.29,7.91,7.65,0,*41
1499767589.36,47195,18.81,74000.0,12.29,7.69,7.29,0,*4F
1499767590.56,47196,18.81,74000.3,12.29,7.45,7.01,0,*48
1499767591.79,47197,18.81,73998.5,12.29,7.55,7.23,0,*48
1499767593.05,47198,18.81,74000.0,12.29,7.19,6.91,0,*47
1499767594.26,47199,18.81,74000.5,12.31,7.23,6.93,0,*44
1499767595.51,47200,18.81,74000.3,12.29,7.87,7.65,0,*48
1499767596.74,47201,18.81,74004.0,12.29,7.69,7.45,0,*4B
1499767597.94,47202,18.81,74006.0,12.31,7.51,7.15,0,*4F
1499767599.15,47203,18.81,74008.5,12.31,7.69,7.37,0,*45
1499767600.35,47204,18.81,74004.8,12.31,7.69,7.37,0,*42
1499767601.56,47205,18.81,74006.0,12.31,8.15,7.83,0,*48
1499767602.77,47206,18.81,74008.3,12.31,7.59,7.27,0,*42
1499767604.0,47207,18.81,74012.5,12.33,8.05,7.73,0,*46
1499767605.27,47208,18.81,74012.5,12.33,7.91,7.61,0,*48
1499767606.47,47209,18.81,74012.5,12.35,7.19,6.83,0,*42
1499767607.71,47210,18.81,74012.0,12.33,7.61,7.37,0,*4D
1499767608.92,47211,18.81,74012.0,12.35,7.65,7.37,0,*4E
1499767610.16,47212,18.81,74010.0,12.33,7.73,7.37,0,*4C
1499767611.34,47213,18.81,74012.3,12.35,7.29,7.05,0,*45
1499767612.54,47214,18.81,74012.8,12.35,7.45,7.19,0,*45
1499767613.75,47215,18.81,74014.3,12.35,7.51,7.27,0,*4C
1499767614.97,47216,18.81,74012.3,12.35,7.77,7.51,0,*4A
1499767616.2,47217,18.81,74014.3,12.37,7.87,7.59,0,*4E
1499767617.43,47218,18.81,74010.5,12.37,8.19,7.91,0,*4D
1499767618.67,47219,18.81,74012.5,12.39,8.37,8.13,0,*4B
1499767619.9,47220,18.81,74012.0,12.43,8.55,8.41,0,*4F
1499767621.1,47221,18.81,74008.8,12.43,8.61,8.29,0,*47
1499767622.32,47222,18.81,74012.8,12.45,8.65,8.29,0,*46
1499767623.52,47223,18.81,74014.8,12.43,8.61,8.33,0,*4E
1499767624.78,47224,18.81,74008.5,12.49,8.75,8.47,0,*45
1499767626.02,47225,18.81,74014.3,12.49,8.79,8.59,0,*47
1499767627.28,47226,18.81,74016.5,12.53,9.19,8.89,0,*45
1499767628.51,47227,18.81,74012.8,12.53,9.15,8.79,0,*47
1499767629.72,47228,18.81,74018.5,12.57,8.87,8.61,0,*4F
1499767630.96,47229,18.81,74012.5,12.57,8.65,8.37,0,*41
1499767632.16,47230,18.81,74012.3,12.59,7.97,7.69,0,*41
1499767633.35,47231,18.81,74014.5,12.59,7.51,7.29,0,*4E
1499767634.53,47232,18.81,74010.5,12.59,7.55,7.41,0,*47
1499767635.71,47233,18.81,74014.5,12.59,7.79,7.55,0,*4D
1499767636.92,47234,18.81,74012.8,12.61,7.69,7.45,0,*41
1499767638.13,47235,18.81,74016.0,12.61,7.55,7.27,0,*4B
1499767639.31,47236,18.81,74014.8,12.59,7.79,7.59,0,*44
1499767640.55,47237,18.81,74014.3,12.61,7.27,6.91,0,*40
1499767641.76,47238,18.81,74012.0,12.61,7.45,7.23,0,*43
1499767642.94,47239,18.81,74012.5,12.61,7.05,6.75,0,*44
1499767644.14,47240,18.81,74008.8,12.59,7.65,7.41,0,*41
1499767645.35,47241,18.81,74010.8,12.61,7.83,7.55,0,*46
1499767646.59,47242,18.81,74012.0,12.61,8.13,7.83,0,*48
1499767647.81,47243,18.81,74010.3,12.63,8.05,7.83,0,*4C
1499767648.99,47244,18.81,74012.0,12.65,7.37,7.05,0,*4D
1499767650.23,47245,18.81,74006.0,12.65,7.47,7.15,0,*4A
1499767651.46,47246,18.81,74004.8,12.63,7.27,7.05,0,*48
1499767652.67,47247,18.81,74000.3,12.65,8.09,7.83,0,*42
1499767653.87,47248,18.81,74006.8,12.65,8.05,7.87,0,*45
1499767655.09,47249,18.81,74006.3,12.65,7.51,7.19,0,*4D
1499767656.33,47250,18.81,74000.8,12.65,6.47,6.13,0,*48
1499767657.59,47251,18.81,73998.8,12.63,7.23,6.91,0,*46
1499767658.78,47252,18.81,73998.3,12.65,7.51,7.37,0,*4B
1499767659.99,47253,18.81,74000.3,12.65,7.37,7.19,0,*46
1499767661.2,47254,18.81,74004.8,12.65,7.19,6.79,0,*4A
1499767662.42,47255,18.81,74002.5,12.65,6.51,6.21,0,*4B
1499767663.66,47256,18.81,73996.0,12.63,5.89,5.63,0,*4D
1499767664.92,47257,18.81,74000.3,12.63,6.65,6.43,0,*4C
1499767666.13,47258,18.81,73998.8,12.61,7.47,7.37,0,*42
1499767667.33,47259,18.81,74000.0,12.59,7.33,7.19,0,*47
1499767668.52,47260,18.81,73996.0,12.61,7.79,7.59,0,*4C
1499767669.75,47261,18.81,74002.3,12.63,7.73,7.55,0,*49
1499767671.01,47262,18.81,73998.0,12.63,7.15,6.91,0,*43
1499767672.25,47263,18.81,73996.3,12.63,7.23,6.97,0,*41
1499767673.47,47264,18.81,73998.5,12.63,6.33,6.11,0,*48
1499767674.71,47265,18.81,73992.0,12.65,6.47,6.35,0,*4A
1499767675.98,47266,18.81,73988.8,12.63,6.65,6.35,0,*4F
1499767677.21,47267,18.81,73988.3,12.59,6.57,6.51,0,*44
1499767678.47,47268,18.81,74002.0,12.63,7.11,6.91,0,*4D
1499767679.68,47269,18.81,74002.8,12.61,7.33,7.11,0,*47
1499767680.88,47270,18.81,74006.8,12.61,7.27,7.05,0,*4F
1499767682.11,47271,18.81,74004.8,12.63,6.79,6.65,0,*41
1499767683.31,47272,18.81,74004.3,12.61,6.79,6.57,0,*41
1499767684.55,47273,18.81,73996.8,12.63,6.17,5.95,0,*47
1499767685.78,47274,18.81,74004.0,12.59,6.73,6.51,0,*40
1499767687.01,47275,18.81,74008.5,12.59,6.87,6.69,0,*41
1499767688.22,47276,18.81,74004.0,12.59,6.53,6.33,0,*44
1499767689.41,47277,18.81,74010.0,12.61,6.21,5.95,0,*44
1499767690.64,47278,18.81,74014.5,12.61,6.91,6.65,0,*4C
1499767691.88,47279,18.81,74002.8,12.59,6.73,6.51,0,*4D
1499767693.08,47280,18.81,74008.0,12.59,6.75,6.51,0,*4D
1499767694.26,47281,18.81,74012.0,12.59,7.45,7.29,0,*40
1499767695.47,47282,18.81,74012.0,12.61,7.37,7.27,0,*43
1499767696.64,47283,18.81,74010.8,12.59,7.33,7.05,0,*4D
1499767697.87,47284,18.81,74012.8,12.59,6.61,6.39,0,*42
1499767699.11,47285,18.81,74012.3,12.59,6.73,6.43,0,*4D
1499767700.31,47286,18.81,74006.8,12.59,6.97,6.73,0,*47
1499767701.51,47287,18.81,74010.5,12.59,7.19,7.09,0,*4D
1499767702.69,47288,18.81,74010.3,12.59,7.29,7.01,0,*49
1499767703.89,47289,18.81,74008.3,12.59,6.93,6.73,0,*4C
1499767705.12,47290,18.81,74008.8,12.61,6.69,6.53,0,*48
1499767706.32,47291,18.81,74008.3,12.59,6.53,6.33,0,*4D
1499767707.59,47292,18.81,74010.3,12.57,6.57,6.35,0,*42
1499767708.8,47293,18.81,74008.8,12.59,6.61,6.33,0,*4E
1499767709.97,47294,18.81,74012.5,12.59,7.09,6.75,0,*44
1499767711.19,47295,18.81,74000.8,12.59,6.21,5.93,0,*45
1499767712.41,47296,18.81,74000.0,12.57,6.25,5.99,0,*46
1499767713.62,47297,18.81,73994.8,12.57,5.67,5.41,0,*47
1499767714.85,47298,18.81,73984.0,12.55,6.13,5.93,0,*45
1499767716.1,47299,18.81,73982.0,12.53,6.91,6.65,0,*42
1499767717.33,47300,18.81,73982.8,12.53,6.11,5.85,0,*46
1499767718.55,47301,18.81,73988.3,12.53,5.55,5.29,0,*42
1499767719.75,47302,18.81,73992.0,12.51,6.25,5.99,0,*4C
1499767720.99,47303,18.81,74000.3,12.51,6.65,6.43,0,*4D
1499767722.19,47304,18.81,74000.3,12.51,5.29,5.05,0,*40
1499767723.4,47305,18.81,74004.5,12.51,6.47,6.21,0,*4F